"Pseudo-MPEC" for P11Jzal

Created 2023 Sep 19 21:22:29 UT using Find_Orb

Click here for an explanation of pseudo-MPECs

 
 Astrometry: 
     P11Jzal  C2023 09 07qTAstrometryuW=-R)/:Yo`$sHmwuJ9B?I#TlMGky!@VrMbU6W4+F52
     P11Jzal  C2023 09 07=l%?`V]5PWFS4;Gk:1Ku83P(D?3ael%I=n)HKO!9*!U+FIb1N]#gF52
     P11Jzal  C2023 09 07+``sLe\+hLKU#?_YNEYQ-kDHB1T\rM^xlu)5u)aQ/TNVgVUG-bl3F52
     P11Jzal  C2023 09 07,:/qHFCu*uBY%1Tbredacted;r+Kh:yx[/S\=;(*!w:ME`puDl=$F52
     P11Jzal* C2023 09 15K(2gr9BflA!t^?jfIEc=r/WC^iUZnclick]F[]rtY^g`iux.?1d(F51
     P11Jzal  C2023 09 15O]k,ZOb#^vqACRX;'7Tn8n]gFE,d0pl_here-7FA@.D$_oE(HWwOF51
     P11Jzal  C2023 09 15o+waS4NyY4di*0)lH)forgh72Gv[FX)$02socZIwbHVvfZw]EfngF51
     P11Jzal  C2023 09 15WZh.;5@ymPefOILK)88]Li@Sh`G/=[xKvgluZvav6ybpKE.=\4`gF51
     P11Jzal  C2023 09 15Nh]ZI[_FH+u((6(XL\XiR)4:q)`Mp4D_K$b-=./I^lQtN/!eAjq$F52
     P11Jzal  C2023 09 15Xf$)o1e,U$X3g?PO(ygt*b#nch5-_:e%rIt7Z:Ci!_t,i#`VwjT8F52
     P11Jzal 1C2023 09 15.98464 22 26 34.85 +13 07 07.6    ~9G5q 21.3 VXNEOCP033
     P11Jzal 1C2023 09 15.98822 22 26 35.17 +13 07 00.7    ~9G5q 21.2 VXNEOCP033
     P11Jzal 1C2023 09 15.99181 22 26 35.52 +13 06 54.3    ~9G5q 21.2 VXNEOCP033
     P11Jzal KC2023 09 16[B(h\v.aHW69kP]ZH8\.ghwj(SAMLvearGP.w8JFI`9:6Pt^i0F0H21
     P11Jzal KC2023 09 16RC[QA.#=MdjOnxL`HL/.@IxexplanationpC79-]I`[Iu2k]ib0-H21
     P11Jzal 1C2023 09 16.97279 22 28 14.92 +12 38 09.9    ~9H0M 21.4 VXNEOCP033
     P11Jzal 1C2023 09 16.97638 22 28 15.27 +12 38 03.3    ~9H0M 21.3 VXNEOCP033
     P11Jzal 1C2023 09 16.97996 22 28 15.60 +12 37 57.3    ~9H0M 21.5 VXNEOCP033
     P11Jzal 1C2023 09 18.83427 22 31 22.43 +11 44 08.6    ~9J7q 21.8 VXNEOCP033
     P11Jzal 1C2023 09 18.83786 22 31 22.78 +11 44 02.7    ~9J7q 21.2 VXNEOCP033
     P11Jzal 1C2023 09 18.84144 22 31 23.09 +11 43 56.1    ~9J7q 21.4 VXNEOCP033

Station data:
(033) Karl Schwarzschild Observatory, Tautenburg  (N50.980137 E11.711240)
   Germany.  Observer B. Stecklum. 1.34-m f/3 Schmidt + CCD.
(F51) Pan-STARRS 1, Haleakala  (N20.707234 W156.255910)  US/Hawaii.
   Observers J. Bulger, T. Lowe, A. Schultz, M. Willman. Measurers K.
   Chambers, S. Chastel, T. de Boer, L. Denneau, J. Fairlamb, H. Flewelling,
   M. Huber, C.-C. Lin, E. Magnier, Y. Ramanjooloo, R. Wainscoat, R. Weryk.
   1.8-m Ritchey-Chrétien + CCD.
(F52) Pan-STARRS 2, Haleakala  (N20.707382 W156.255910)  US/Hawaii.
   Observers J. Bulger, T. Dukes, T. Lowe, A. Schultz, M. Willman. Measurers
   K. Chambers, S. Chastel, T. de Boer, L. Denneau, J. Fairlamb, H.
   Flewelling, M. Huber, C.-C. Lin, E. Magnier, Y. Ramanjooloo, R. Wainscoat,
   R. Weryk. 1.8-m Ritchey-Chrétien + CCD.
(H21) Astronomical Research Observatory, Westfield  (N39.483054 W87.968270)
   US/Illinois.  Observer R. Holmes. Measurers S. Foglia, L. Buzzi, T.
   Linder, R. Holmes. 0.76-m f/3.0 astrograph + CCD0.81-m f/4.0 astrograph +
   CCD0.61-m f/4.5 astrograph + CCD0.40-m f/5.32 astrograph + CCD.

Orbital elements:  P11Jzal
   Perihelion 2023 Aug 4.76880 +/- 0.0254 TT = 18:27:04 (JD 2460161.26880)
Epoch 2023 Sep 18.0 TT = JDT 2460205.5   Earth MOID: 0.3287   Ju: 0.9638
M   7.54491176 +/- 0.20             (J2000 ecliptic)             AutoNEOCP
n   0.17057896 +/- 0.00462          Peri.  112.20646 +/- 0.16
a   3.21997419 +/- 0.0582           Node   202.76902 +/- 0.12
e   0.6026911 +/- 0.00634           Incl.   10.81434 +/- 0.09
P   5.78                   H 22.28  G  0.15   U  9.1
q 1.27932418 +/- 0.00268    Q 5.16062420 +/- 0.114
From 21 observations 2023 Sept. 7-18; mean residual 0".17
Residuals in arcseconds: 
230907 F52  .02-  .05-    230915 F51  .21+  .18-    230916 H21  .06-  .50+    
230907 F52  .11+  .25-    230915 F52  .01-  .16-    230916 033  .00   .12+    
230907 F52  .11-  .10+    230915 F52  .11-  .00     230916 033  .12+  .16-    
230907 F52  .03+  .20+    230915 033  .21+  .41+    230916 033  .04-  .14+    
230915 F51  .08-  .12+    230915 033  .13-  .15-    230918 033  .03+  .10-    
230915 F51  .05-  .01+    230915 033  .06-  .19-    230918 033  .19+  .17+    
230915 F51  .09+  .09+    230916 H21  .08-  .28+    230918 033  .22-  .27-    

Ephemerides (geocentric):
Date (UTC) HH   RA             Dec           delta  r     elong  mag " sig PA
---- --------  ------------   ------------  ------ ------ -----  --- --------
2023 09 19 21  22 33 05.439   +11 14 34.04  .40488 1.3878 157.8 21.9 .216  14
2023 09 19 22  22 33 09.568   +11 13 22.82  .40507 1.3880 157.8 21.9 .221  14
2023 09 19 23  22 33 13.695   +11 12 11.63  .40527 1.3882 157.8 21.9 .226  14
2023 09 20 00  22 33 17.822   +11 11 00.48  .40547 1.3884 157.8 21.9 .231  14
2023 09 20 01  22 33 21.948   +11 09 49.36  .40566 1.3885 157.8 21.9 .237  15
2023 09 20 02  22 33 26.072   +11 08 38.27  .40586 1.3887 157.8 21.9 .242  15
2023 09 20 03  22 33 30.196   +11 07 27.21  .40606 1.3889 157.8 21.9 .248  15
2023 09 20 04  22 33 34.318   +11 06 16.19  .40626 1.3891 157.8 21.9 .254  15
2023 09 20 05  22 33 38.440   +11 05 05.20  .40645 1.3893 157.8 21.9 .259  16
2023 09 20 06  22 33 42.560   +11 03 54.24  .40665 1.3895 157.8 21.9 .265  16
2023 09 20 07  22 33 46.680   +11 02 43.32  .40685 1.3897 157.8 21.9 .271  16
2023 09 20 08  22 33 50.798   +11 01 32.43  .40705 1.3898 157.8 21.9 .277  16
2023 09 20 09  22 33 54.916   +11 00 21.57  .40725 1.3900 157.8 21.9 .283  16
2023 09 20 10  22 33 59.032   +10 59 10.75  .40745 1.3902 157.8 21.9 .289  17
2023 09 20 11  22 34 03.148   +10 57 59.96  .40765 1.3904 157.8 21.9 .296  17
2023 09 20 12  22 34 07.262   +10 56 49.20  .40785 1.3906 157.8 21.9 .302  17
2023 09 20 13  22 34 11.376   +10 55 38.48  .40805 1.3908 157.8 21.9 .308  17
2023 09 20 14  22 34 15.488   +10 54 27.80  .40825 1.3910 157.8 21.9 .315  17
2023 09 20 15  22 34 19.599   +10 53 17.15  .40845 1.3911 157.8 21.9 .321  17
2023 09 20 16  22 34 23.710   +10 52 06.53  .40865 1.3913 157.8 21.9 .328  18
2023 09 20 17  22 34 27.819   +10 50 55.95  .40885 1.3915 157.8 21.9 .335  18
2023 09 20 18  22 34 31.928   +10 49 45.40  .40906 1.3917 157.8 21.9 .342  18
2023 09 20 19  22 34 36.035   +10 48 34.89  .40926 1.3919 157.8 21.9 .349  18
2023 09 20 20  22 34 40.141   +10 47 24.42  .40946 1.3921 157.8 21.9 .356  18
2023 09 20 21  22 34 44.247   +10 46 13.98  .40966 1.3923 157.8 21.9 .363  18
2023 09 20 22  22 34 48.351   +10 45 03.57  .40987 1.3925 157.8 21.9 .370  18
2023 09 20 23  22 34 52.454   +10 43 53.21  .41007 1.3926 157.8 21.9 .377  19
2023 09 21 00  22 34 56.557   +10 42 42.87  .41027 1.3928 157.8 21.9 .385  19
2023 09 21 01  22 35 00.658   +10 41 32.58  .41048 1.3930 157.8 21.9 .392  19
2023 09 21 02  22 35 04.758   +10 40 22.32  .41068 1.3932 157.8 21.9 .400  19
2023 09 21 03  22 35 08.858   +10 39 12.09  .41089 1.3934 157.8 21.9 .407  19
2023 09 21 04  22 35 12.956   +10 38 01.91  .41109 1.3936 157.8 21.9 .415  19
2023 09 21 05  22 35 17.054   +10 36 51.76  .41130 1.3938 157.8 21.9 .423  19
2023 09 21 06  22 35 21.150   +10 35 41.64  .41150 1.3940 157.8 21.9 .431  20
2023 09 21 07  22 35 25.245   +10 34 31.57  .41171 1.3941 157.8 21.9 .439  20
2023 09 21 08  22 35 29.340   +10 33 21.53  .41192 1.3943 157.8 21.9 .447  20
2023 09 21 09  22 35 33.433   +10 32 11.53  .41212 1.3945 157.8 21.9 .455  20
2023 09 21 10  22 35 37.526   +10 31 01.56  .41233 1.3947 157.8 21.9 .463  20
2023 09 21 11  22 35 41.617   +10 29 51.63  .41254 1.3949 157.8 21.9 .472  20
2023 09 21 12  22 35 45.707   +10 28 41.75  .41274 1.3951 157.8 21.9 .480  20
2023 09 21 13  22 35 49.797   +10 27 31.90  .41295 1.3953 157.8 21.9 .489  20
2023 09 21 14  22 35 53.885   +10 26 22.08  .41316 1.3955 157.8 21.9 .497  20
2023 09 21 15  22 35 57.973   +10 25 12.31  .41337 1.3957 157.8 21.9 .506  21
2023 09 21 16  22 36 02.059   +10 24 02.57  .41358 1.3958 157.8 21.9 .515  21
2023 09 21 17  22 36 06.145   +10 22 52.87  .41378 1.3960 157.8 21.9 .524  21
2023 09 21 18  22 36 10.229   +10 21 43.22  .41399 1.3962 157.8 21.9 .533  21
2023 09 21 19  22 36 14.313   +10 20 33.60  .41420 1.3964 157.8 21.9 .542  21
2023 09 21 20  22 36 18.396   +10 19 24.01  .41441 1.3966 157.8 21.9 .551  21